• In Austria
  • List of Countries
  • For 7 days
  • Water Temperature
  • Satellite Maps
  • Weather Map
  • News
  • Weather Widgets
  • user-avatar
    Login

    Hourly Weather Lankaran

    Today, 21 May, Monday

    Time Temperature Precipitation Wind Pressure Humidity
    00:00 +15°C° 0.2 mm 1 mps 635 mmHg 64%
    01:00 +14°C° 0.2 mm 1 mps 635 mmHg 66%
    02:00 +14°C° 0.2 mm 1 mps 634 mmHg 69%
    03:00 +13°C° 0.2 mm 1 mps 634 mmHg 72%
    04:00 +13°C° 0.1 mm 0 mps 634 mmHg 69%
    05:00 +14°C° 0.1 mm 0 mps 635 mmHg 66%
    06:00 +15°C° 0.1 mm 0 mps 635 mmHg 63%
    07:00 +16°C° 0 mm 0 mps 635 mmHg 58%
    08:00 +19°C° 0 mm 1 mps 636 mmHg 52%
    09:00 +21°C° 0 mm 1 mps 636 mmHg 47%
    10:00 +21°C° 0.3 mm 1 mps 636 mmHg 46%
    11:00 +21°C° 0.3 mm 2 mps 636 mmHg 45%
    12:00 +23°C° 0.3 mm 2 mps 637 mmHg 44%
    13:00 +21°C° 0.8 mm 2 mps 636 mmHg 45%
    14:00 +21°C° 0.8 mm 2 mps 636 mmHg 47%
    15:00 +21°C° 0.8 mm 2 mps 636 mmHg 48%
    16:00 +20°C° 0.4 mm 2 mps 635 mmHg 52%
    17:00 +19°C° 0.4 mm 2 mps 635 mmHg 56%
    18:00 +18°C° 0.4 mm 2 mps 635 mmHg 61%
    19:00 +18°C° 0.2 mm 1 mps 635 mmHg 63%
    20:00 +16°C° 0.2 mm 1 mps 635 mmHg 66%
    21:00 +15°C° 0.2 mm 1 mps 635 mmHg 69%
    22:00 +15°C° 0.5 mm 1 mps 635 mmHg 70%
    23:00 +15°C° 0.5 mm 1 mps 635 mmHg 71%

    Tomorrow, 22 May, Tuesday

    Time Temperature Precipitation Wind Pressure Humidity
    00:00 +15°C° 0.5 mm 1 mps 635 mmHg 72%
    01:00 +14°C° 0.1 mm 1 mps 635 mmHg 73%
    02:00 +14°C° 0.1 mm 1 mps 635 mmHg 74%
    03:00 +14°C° 0.1 mm 1 mps 635 mmHg 75%
    04:00 +14°C° 0.1 mm 1 mps 635 mmHg 74%
    05:00 +15°C° 0.1 mm 1 mps 636 mmHg 72%
    06:00 +14°C° 0.1 mm 0 mps 636 mmHg 71%
    07:00 +18°C° 0 mm 1 mps 637 mmHg 64%
    08:00 +19°C° 0 mm 1 mps 637 mmHg 58%
    09:00 +19°C° 0 mm 2 mps 638 mmHg 51%
    10:00 +20°C° 0.1 mm 2 mps 638 mmHg 47%
    11:00 +20°C° 0.1 mm 3 mps 638 mmHg 44%
    12:00 +21°C° 0.1 mm 3 mps 638 mmHg 40%
    13:00 +21°C° 0.1 mm 3 mps 638 mmHg 40%
    14:00 +21°C° 0.1 mm 3 mps 637 mmHg 39%
    15:00 +20°C° 0.1 mm 4 mps 637 mmHg 39%
    16:00 +19°C° 0.3 mm 3 mps 637 mmHg 45%
    17:00 +18°C° 0.3 mm 2 mps 637 mmHg 52%
    18:00 +16°C° 0.3 mm 2 mps 637 mmHg 58%
    19:00 +15°C° 0.1 mm 1 mps 637 mmHg 58%
    20:00 +15°C° 0.1 mm 1 mps 636 mmHg 58%
    21:00 +14°C° 0.1 mm 1 mps 636 mmHg 57%
    22:00 +14°C° 0 mm 1 mps 636 mmHg 57%
    23:00 +13°C° 0 mm 1 mps 636 mmHg 56%

    Day after tomorrow, 23 May, Wednesday

    Time Temperature Precipitation Wind Pressure Humidity
    00:00 +13°C° 0 mm 1 mps 636 mmHg 55%
    01:00 +13°C° 0 mm 1 mps 636 mmHg 53%
    02:00 +12°C° 0 mm 1 mps 636 mmHg 52%
    03:00 +12°C° 0 mm 1 mps 636 mmHg 50%
    04:00 +13°C° 0 mm 1 mps 636 mmHg 49%
    05:00 +14°C° 0 mm 1 mps 637 mmHg 48%
    06:00 +15°C° 0 mm 1 mps 637 mmHg 47%
    07:00 +16°C° 0.1 mm 2 mps 637 mmHg 42%
    08:00 +18°C° 0.1 mm 2 mps 638 mmHg 38%
    09:00 +19°C° 0.1 mm 3 mps 638 mmHg 34%
    10:00 +20°C° 0 mm 3 mps 638 mmHg 33%
    11:00 +21°C° 0 mm 3 mps 638 mmHg 33%
    12:00 +22°C° 0 mm 4 mps 638 mmHg 32%
    13:00 +22°C° 0 mm 4 mps 638 mmHg 32%
    14:00 +22°C° 0 mm 4 mps 638 mmHg 32%
    15:00 +21°C° 0 mm 4 mps 638 mmHg 33%
    16:00 +20°C° 0 mm 4 mps 637 mmHg 36%
    17:00 +19°C° 0 mm 3 mps 637 mmHg 40%
    18:00 +17°C° 0 mm 3 mps 636 mmHg 44%
    19:00 +16°C° 0 mm 3 mps 636 mmHg 44%
    20:00 +14°C° 0 mm 2 mps 636 mmHg 44%
    21:00 +13°C° 0 mm 2 mps 635 mmHg 44%
    22:00 +12°C° 0 mm 2 mps 635 mmHg 43%
    23:00 +12°C° 0 mm 2 mps 635 mmHg 42%

    24 May, Thursday

    Time Temperature Precipitation Wind Pressure Humidity
    00:00 +12°C° 0 mm 2 mps 634 mmHg 42%
    01:00 +12°C° 0 mm 1 mps 634 mmHg 41%
    02:00 +11°C° 0 mm 1 mps 634 mmHg 40%
    03:00 +11°C° 0 mm 1 mps 634 mmHg 40%
    04:00 +12°C° 0.1 mm 1 mps 634 mmHg 40%
    05:00 +14°C° 0.1 mm 1 mps 635 mmHg 40%
    06:00 +15°C° 0.1 mm 1 mps 635 mmHg 40%
    07:00 +16°C° 0 mm 1 mps 635 mmHg 37%
    08:00 +18°C° 0 mm 2 mps 636 mmHg 34%
    09:00 +19°C° 0 mm 2 mps 636 mmHg 31%
    10:00 +20°C° 0.1 mm 2 mps 636 mmHg 32%
    11:00 +21°C° 0.1 mm 2 mps 636 mmHg 32%
    12:00 +21°C° 0.1 mm 3 mps 636 mmHg 33%
    13:00 +21°C° 0.1 mm 3 mps 635 mmHg 34%
    14:00 +21°C° 0.1 mm 3 mps 635 mmHg 35%
    15:00 +21°C° 0.1 mm 3 mps 635 mmHg 37%
    16:00 +20°C° 0.1 mm 2 mps 634 mmHg 41%
    17:00 +19°C° 0.1 mm 2 mps 634 mmHg 44%
    18:00 +18°C° 0.1 mm 1 mps 633 mmHg 48%
    19:00 +16°C° 0 mm 1 mps 633 mmHg 50%
    20:00 +14°C° 0 mm 1 mps 633 mmHg 51%
    21:00 +13°C° 0 mm 1 mps 632 mmHg 53%
    22:00 +13°C° 0 mm 1 mps 632 mmHg 52%
    23:00 +13°C° 0 mm 1 mps 632 mmHg 51%

    25 May, Friday

    Time Temperature Precipitation Wind Pressure Humidity
    00:00 +13°C° 0 mm 2 mps 632 mmHg 50%
    01:00 +13°C° 0 mm 2 mps 631 mmHg 51%
    02:00 +13°C° 0 mm 1 mps 631 mmHg 53%
    03:00 +13°C° 0 mm 1 mps 631 mmHg 54%
    04:00 +13°C° 0 mm 1 mps 631 mmHg 54%
    05:00 +14°C° 0 mm 1 mps 632 mmHg 54%
    06:00 +15°C° 0 mm 1 mps 632 mmHg 54%
    07:00 +18°C° 0.1 mm 1 mps 632 mmHg 50%
    08:00 +18°C° 0.1 mm 2 mps 633 mmHg 46%
    09:00 +20°C° 0.1 mm 2 mps 633 mmHg 42%
    10:00 +21°C° 0.2 mm 2 mps 633 mmHg 41%
    11:00 +23°C° 0.2 mm 2 mps 633 mmHg 39%
    12:00 +22°C° 0.2 mm 3 mps 633 mmHg 37%
    13:00 +24°C° 0.2 mm 3 mps 633 mmHg 37%
    14:00 +24°C° 0.2 mm 3 mps 633 mmHg 37%
    15:00 +24°C° 0.2 mm 3 mps 632 mmHg 37%
    16:00 +23°C° 0.2 mm 2 mps 632 mmHg 41%
    17:00 +21°C° 0.2 mm 2 mps 632 mmHg 45%
    18:00 +20°C° 0.2 mm 2 mps 632 mmHg 49%
    19:00 +18°C° 0.2 mm 2 mps 631 mmHg 53%
    20:00 +18°C° 0.2 mm 1 mps 631 mmHg 57%
    21:00 +15°C° 0.2 mm 1 mps 631 mmHg 61%
    22:00 +15°C° 0.2 mm 1 mps 631 mmHg 60%
    23:00 +15°C° 0.2 mm 1 mps 631 mmHg 60%

    26 May, Saturday

    Time Temperature Precipitation Wind Pressure Humidity
    00:00 +15°C° 0.2 mm 1 mps 631 mmHg 60%
    01:00 +15°C° 0.2 mm 1 mps 631 mmHg 60%
    02:00 +14°C° 0.2 mm 1 mps 631 mmHg 60%
    03:00 +14°C° 0.2 mm 1 mps 631 mmHg 60%
    04:00 +15°C° 0 mm 1 mps 631 mmHg 58%
    05:00 +16°C° 0 mm 1 mps 632 mmHg 56%
    06:00 +18°C° 0 mm 1 mps 632 mmHg 55%
    07:00 +20°C° 0 mm 1 mps 633 mmHg 49%
    08:00 +21°C° 0 mm 1 mps 633 mmHg 43%
    09:00 +23°C° 0 mm 2 mps 634 mmHg 37%
    10:00 +24°C° 0 mm 2 mps 634 mmHg 36%
    11:00 +24°C° 0 mm 2 mps 634 mmHg 36%
    12:00 +25°C° 0 mm 2 mps 634 mmHg 35%
    13:00 +25°C° 0 mm 3 mps 634 mmHg 36%
    14:00 +25°C° 0 mm 3 mps 634 mmHg 37%
    15:00 +25°C° 0 mm 3 mps 634 mmHg 39%
    16:00 +22°C° 0.2 mm 3 mps 634 mmHg 46%
    17:00 +20°C° 0.2 mm 3 mps 633 mmHg 53%
    18:00 +19°C° 0.2 mm 3 mps 633 mmHg 60%
    19:00 +17°C° 0.4 mm 2 mps 633 mmHg 65%
    20:00 +16°C° 0.4 mm 2 mps 634 mmHg 69%
    21:00 +14°C° 0.4 mm 2 mps 634 mmHg 74%
    22:00 +14°C° 0.2 mm 2 mps 634 mmHg 73%
    23:00 +13°C° 0.2 mm 2 mps 634 mmHg 71%
    Show more